Regional Weather Roundup
Issued by NWS

Home | Current Version | Previous Version | Text Only | Print | Product List | Glossary On
Versions: 1 2 3 4 5 6 7 8 9 10 11 12 13 14 15 16 17 18 19 20 21 22 23 24 25 26 27 28 29 30 31 32 33 34 35 36 37 38 39 40 41 42 43 44 45 46 47 48 49 50
000
ASUS44 KEWX 240011
RWRTX
SOUTH TEXAS REGIONAL WEATHER ROUNDUP
NATIONAL WEATHER SERVICE AUSTIN/SAN ANTONIO TX
700 PM CDT SAT JUL 23 2016

NOTE: "FAIR" INDICATED FEW OR NO CLOUDS BELOW 12,000 FEET WITH NO
SIGNIFICANT WEATHER AND/OR OBSTRUCTIONS TO VISIBILITY.

* - THESE STATIONS ARE NOT NWS OR FAA STATIONS...AND ARE NOT SUBJECT
    TO NWS AND FAA QUALITY CONTROL.

TXZ171-172-183>190-240100-
TEXAS HILL COUNTRY AND EDWARDS PLATEAU

CITY           SKY/WX    TMP DP  RH WIND       PRES   REMARKS
JUNCTION       SUNNY     99  58  25 SE13G22   29.88F HX  98
6HR MIN TEMP:  92; 6HR MAX TEMP: 101;

*LLANO         SUNNY     99  59  26 S12       29.89F HX  98
BURNET         SUNNY     96  62  32 SE10      29.91F HX  97
6HR MIN TEMP:  93; 6HR MAX TEMP:  99;

*HORSESHOE BAY SUNNY     98  63  31 SE7       29.88F HX  99
6HR MIN TEMP:  94; 6HR MAX TEMP: 100;

*KERRVILLE     SUNNY     97  66  35 S12       29.91F HX 100
6HR MIN TEMP:  92; 6HR MAX TEMP:  97;

*FREDERICKSBRG SUNNY     94  56  27 S8        29.92S HX  92
6HR MIN TEMP:  91; 6HR MAX TEMP:  97;

*ROCKSPRINGS   MOSUNNY   97  57  26 SE10G18   29.96F HX  95
*BOERNE STAGE  SUNNY     91  63  38 S6        29.91F HX  92
*CASTROVILLE   SUNNY    100  60  26 SE8       29.86F HX 100
HONDO          SUNNY     98  63  31 SE15      29.87F HX 100
6HR MIN TEMP:  93; 6HR MAX TEMP: 100;

*UVALDE        SUNNY     98  62  29 SE10      29.85F HX  99
6HR MIN TEMP:  92; 6HR MAX TEMP: 100;

DEL RIO        SUNNY    102  59  24 S15       29.80F HX 102
6HR MIN TEMP:  96; 6HR MAX TEMP: 103;

LAUGHLIN AFB   SUNNY    102  60  25 SE12G22   29.81F HX 102
6HR MIN TEMP:  96; 6HR MAX TEMP: 103;

CARRIZO SPRGS  MOSUNNY  102  61  25 SE7G17    29.79F HX 103
*EAGLE PASS    CLEAR    102  57  22 SE10      29.81F HX 101
$$

TXZ173-191>194-202-209-217>225-228-240100-
CENTRAL AND SOUTH CENTRAL TEXAS

CITY           SKY/WX    TMP DP  RH WIND       PRES   REMARKS
GEORGETOWN     SUNNY     97  66  36 SE6       29.88F HX 100
AUSTIN/BERGSTM MOSUNNY   98  67  36 SE10      29.86F HX 102
6HR MIN TEMP:  93; 6HR MAX TEMP: 100;

AUSTIN/MABRY   MOSUNNY   97  69  40 SE7       29.88F HX 103
6HR MIN TEMP:  95; 6HR MAX TEMP: 101;

*AUSTIN/EXEC     N/A     95  68  41 SE8       29.88F HX  99
*LAGO VISTA    SUNNY     95  63  34 SE5       29.91F HX  96
6HR MIN TEMP:  93; 6HR MAX TEMP:  99;

SAN MARCOS     MOSUNNY   95  66  38 SE8       29.88F HX  98
NEW BRAUNFELS  SUNNY     98  66  34 S9        29.85F HX 101
6HR MIN TEMP:  93; 6HR MAX TEMP: 101;

RANDOLPH AFB   SUNNY     97  66  35 S9        29.86F HX 100
6HR MIN TEMP:  92; 6HR MAX TEMP:  99;

PT SAN ANTONIO MOSUNNY   99  65  33 SE8       29.84F HX 102
6HR MIN TEMP:  92; 6HR MAX TEMP:  99;

SAN ANTONIO    MOSUNNY   97  66  36 SE10      29.86F HX 100
6HR MIN TEMP:  90; 6HR MAX TEMP:  98;

STINSON FIELD  SUNNY    100  64  30 E12       29.83F HX 102
6HR MIN TEMP:  93; 6HR MAX TEMP: 102;

*PLEASANTON    MOSUNNY  101  61  27 E6        29.83F HX 102
6HR MIN TEMP:  96; 6HR MAX TEMP: 102;

*LA GRANGE       N/A     98  72  42 SE5       29.84F HX 107
6HR MIN TEMP:  94; 6HR MAX TEMP: 100;

*GIDDINGS      MOSUNNY   96  66  37 S5        29.90F HX 100
6HR MIN TEMP:  93; 6HR MAX TEMP:  98;

*GONZALES      MOSUNNY   96  74  49 SE10G17   29.84F HX 106
6HR MIN TEMP:  95; 6HR MAX TEMP: 101;

$$

TXZ163>164-176>182-195>201-210>213-226-227-235-240100-
SOUTHEAST TEXAS

CITY           SKY/WX    TMP DP  RH WIND       PRES   REMARKS
COLLEGE STN    SUNNY     97  68  38 S9        29.87F HX 102
6HR MIN TEMP:  92; 6HR MAX TEMP:  98;

*BRYAN         SUNNY     96  68  40 S6        29.88F HX 100
6HR MIN TEMP:  94; 6HR MAX TEMP: 100;

*CALDWELL      SUNNY     95  63  34 SE8       29.90F HX  96
*CROCKETT      SUNNY     95  72  46 S5        29.90F HX 103
*BRENHAM       SUNNY     97  69  39 S7        29.87F HX 103
6HR MIN TEMP:  93; 6HR MAX TEMP: 100;

HUNTSVILLE     MOSUNNY   98  67  36 VRB3      29.87F HX 102
6HR MIN TEMP:  94; 6HR MAX TEMP:  99;

CONROE         CLOUDY    93  73  52 SE7       29.88F HX 102
6HR MIN TEMP:  91; 6HR MAX TEMP:  99;

HOUSTON BUSH   MOSUNNY   93  75  55 S9        29.87F HX 104
6HR MIN TEMP:  92; 6HR MAX TEMP: 100;

HOUSTON HOBBY  PTSUNNY   91  73  55 S12       29.88F HX  99
6HR MIN TEMP:  86; 6HR MAX TEMP:  98; 6HR PCP: TRACE;

*HOUSTON SW AP SUNNY     91  73  56 SE9       29.90S HX  99
6HR MIN TEMP:  90; 6HR MAX TEMP:  96;

PEARLAND       SUNNY     93  73  52 S12       29.90F HX 102
6HR MIN TEMP:  93; 6HR MAX TEMP:  98;

HOUSTON HOOKS  SUNNY     93  75  55 SE10      29.87F HX 104
6HR MIN TEMP:  92; 6HR MAX TEMP:  99;

ELLINGTON FLD  MOSUNNY   93  73  52 S10       29.91F HX 102
SUGAR LAND     SUNNY     91  72  53 S15       29.87F HX  98
6HR MIN TEMP:  91; 6HR MAX TEMP:  98;

*HOUSTON EXEC  SUNNY     93  73  52 S9        29.88F HX 102
*CLEVELAND MUN NOT AVBL
*WHARTON       SUNNY     92  72  52 S14       29.89F HX  99
6HR MIN TEMP:  92; 6HR MAX TEMP: 100;

*COLUMBUS      FAIR      93  74  53 S9        29.86F HX 102
6HR MIN TEMP:  90; 6HR MAX TEMP:  99; 6HR PCP:  0.01;

*EAGLE LAKE    MOCLDY    92  73  52 S12G17    29.86F HX 101
6HR MIN TEMP:  92; 6HR MAX TEMP:  99;

$$

TXZ214>216-236>238-240100-
THE UPPER TEXAS COAST

CITY           SKY/WX    TMP DP  RH WIND       PRES   REMARKS
*ORANGE        SUNNY     90  70  52 S8        29.92R HX  95
6HR MIN TEMP:  83; 6HR MAX TEMP:  92; 6HR PCP:  0.04;

PORT ARTHUR    SUNNY     89  74  60 S9        29.90S HX  98
6HR MIN TEMP:  82; 6HR MAX TEMP:  94; 6HR PCP:  0.01;

GALVESTON      SUNNY     88  77  69 S17       29.91F HX 100
6HR MIN TEMP:  88; 6HR MAX TEMP:  92;

ANGLETON       SUNNY     91  75  59 S16       29.90F HX 101
6HR MIN TEMP:  91; 6HR MAX TEMP:  98;

*BAY CITY      SUNNY     91  75  58 S10       29.90S HX 101
PALACIOS       SUNNY     89  76  65 S14       29.89F HX 100
6HR MIN TEMP:  89; 6HR MAX TEMP:  94;

$$

TXZ229>234-239>247-240100-
TEXAS COASTAL BEND AND RIO GRANDE PLAINS

CITY           SKY/WX    TMP DP  RH WIND       PRES   REMARKS
VICTORIA       SUNNY     92  70  48 SE15      29.87F HX  97
6HR MIN TEMP:  92; 6HR MAX TEMP: 100;

*BEEVILLE      SUNNY     94  73  49 SE16G24   29.87S HX 103
6HR MIN TEMP:  93; 6HR MAX TEMP: 101;

ROCKPORT       MOSUNNY   89  76  65 SE13      29.87F HX 100
6HR MIN TEMP:  89; 6HR MAX TEMP:  94;

*PORT ARANSAS  MOSUNNY   87  78  72 SE12      29.88F HX 100
6HR MIN TEMP:  87; 6HR MAX TEMP:  91;

*PORT LAVACA   SUNNY     90  76  64 SE15      29.88F HX 101
6HR MIN TEMP:  89; 6HR MAX TEMP:  94;

*INGLESIDE     SUNNY     91  78  65 SE14      29.87F HX 104
CORPUS CHRISTI MOSUNNY   90  74  59 SE13G22   29.87F HX  99
6HR MIN TEMP:  90; 6HR MAX TEMP:  96;

CORPUS NAS     SUNNY     88  77  69 SE17      29.87F HX 100
6HR MIN TEMP:  88; 6HR MAX TEMP:  93;

*ROBSTOWN      SUNNY     92  73  53 SE14      29.87S HX 101
6HR MIN TEMP:  92; 6HR MAX TEMP:  98;

ALICE          SUNNY     93  70  46 SE17G24   29.84F HX  99
6HR MIN TEMP:  93; 6HR MAX TEMP: 103;

KINGSVILLE NAS SUNNY     90  78  68 SE17G23   29.86F HX 104
6HR MIN TEMP:  90; 6HR MAX TEMP: 100;

COTULLA        MOSUNNY  101  60  25 SE12      29.81F HX 101
6HR MIN TEMP:  97; 6HR MAX TEMP: 105;

*FAITH RANCH   SUNNY    102  61  25 SE9       29.81S HX 103
LAREDO         SUNNY    101  66  31 E15       29.80F HX 105
6HR MIN TEMP:  97; 6HR MAX TEMP: 105;

$$

TXZ248>255-240100-
DEEP SOUTH TEXAS

CITY           SKY/WX    TMP DP  RH WIND       PRES   REMARKS
BROWNSVILLE    SUNNY     89  75  63 SE15      29.87F HX  99
6HR MIN TEMP:  89; 6HR MAX TEMP:  96;

PORT ISABEL    SUNNY     89  76  65 SE16      29.87F HX 100
6HR MIN TEMP:  89; 6HR MAX TEMP:  93;

*SOUTH PAC1F1C2F2C3F3C4F4C5F5C6F6C7M1C8M2C9!



USA.gov is the U.S. government's official web portal to all federal, state and local government web resources and services.